Regional Weather Roundup
Issued by NWS Burlington, VT

Home | Current Version | Previous Version | Text Only | Print | Product List | Glossary On
Versions: 1 2 3 4 5 6 7 8 9 10 11 12 13 14 15 16 17 18 19 20 21 22 23 24 25 26 27 28 29 30 31 32 33 34 35 36 37 38 39 40 41 42 43 44 45 46 47 48 49 50
000
ASUS41 KBTV 210710
RWRBTV
VERMONT REGIONAL WEATHER ROUNDUP
NATIONAL WEATHER SERVICE BURLINGTON VT
300 AM EDT TUE APR 21 2015

NOTE: "FAIR" INDICATES FEW OR NO CLOUDS BELOW 12,000 FEET WITH NO
SIGNIFICANT WEATHER AND/OR OBSTRUCTIONS TO VISIBILITY.

* THESE REPORTS ARE NOT UNDER NWS QUALITY CONTROL AND/OR DO NOT
  REPORT WEATHER SUCH AS PRECIPITATION AND FOG.

VTZ001>019-210800-
_____VERMONT_____


CITY           SKY/WX    TMP DP  RH WIND       PRES   REMARKS
BURLINGTON     CLOUDY    51  42  71 SE6       29.59S
MONTPELIER     CLOUDY    45  41  86 VRB3      29.67F
MORRISVILLE    CLOUDY    45  42  89 CALM      29.65F
ST. JOHNSBURY*   N/A     48  41  76 MISG      29.65F
LYNDONVILLE*   CLOUDY    48  37  65 E9        29.67F
MIDDLEBURY*    CLOUDY    50  42  74 SE12G30   29.56S
RUTLAND*       CLOUDY   N/A N/A N/A S12G18    29.58F
SPRINGFIELD    LGT RAIN  45  44  97 CALM      29.65F FOG
HIGHGATE*      CLOUDY    51  43  75 SE7       29.58F
NEWPORT*       CLOUDY    46  39  76 SE8       29.64F
BENNINGTON     RAIN      51  48  89 CALM      29.60R FOG
SUTTON*          N/A     46 N/A N/A MISG        N/A

_____LAKE CHAMPLAIN_____


CITY           SKY/WX    TMP DP  RH WIND       PRES   REMARKS

$$

NYZ007-026>031-035-052-083-210800-
_____NORTHERN NEW YORK_____


CITY           SKY/WX    TMP DP  RH WIND       PRES   REMARKS
PLATTSBURGH    CLOUDY    46  41  82 E7        29.57F
SARANAC LAKE   CLOUDY    46  46 100 CALM      29.53F
MASSENA        LGT RAIN  48  47  96 E5        29.53F
OGDENSBURG*    PTSUNNY   52  52 100 S5        29.50S
POTSDAM*       LGT RAIN  52  52 100 SW3       29.52S
WATERTOWN      CLOUDY    52  47  83 SW10      29.52F
FT DRUM        CLOUDY    52  52 100 SW15      29.51F
ALBANY         LGT RAIN  51  48  89 N6        29.58F
GLENS FALLS    TSTM      49  46  90 N3        29.61R FOG

$$
NHZ002-005-011-210800-
_____NEW HAMPSHIRE_____


CITY           SKY/WX    TMP DP  RH WIND       PRES   REMARKS
LEBANON        CLOUDY    46  44  93 CALM      29.64F
KEENE          CLOUDY    46  45  93 N9        29.61F
MT WASHINGTON  FRZ RAIN  30  30 100 SE41G59     N/A  VSB 0   WCI  13
PLYMOUTH       HVY RAIN  46  46 100 CALM      29.70F
WHITEFIELD     CLOUDY    49  39  68 E7        29.68F

$$

_____REGIONAL QUEBEC LOCATIONS_____


CITY           SKY/WX    TMP DP  RH WIND       PRES   REMARKS
MONTREAL       LGT RAIN  48  45  87 E10       29.57F
QUEBEC CITY    LGT RAIN  41  39  93 NE18G30   29.78F
SHERBROOKE     CLOUDY    48  39  71 SE15G24   29.67F

_____REGIONAL ONTARIO LOCATIONS_____


CITY           SKY/WX    TMP DP  RH WIND       PRES   REMARKS
OTTAWA         LGT RAIN  46  46 100 E9        29.49F

______KEY______
VSB  - VISIBILITY IN MILES
WCI  - WIND CHILL INDEX
HX   - HEAT INDEX
$$
NNNN


USA.gov is the U.S. government's official web portal to all federal, state and local government web resources and services.